This demonstration page uses our WeatherBlox Daily Observations layout. Learn more.

Left ArrowRight Arrow

39.92423, -83.80882

Hourly Observations for March 29, 2018

Temp ( °F °C ) Dew Point ( °F °C ) Humidity (%) Winds ( mph kmh ) Pressure ( in mb ) Visibility ( mi km ) Precip ( " mm )
12:44 am 00:44 Cloudy with Mist and Fog 50 10 50 10 100 100 SSE 6 9 29.91 1013 1 1 N/A
12:56 am 00:56 Cloudy with Fog 50 10 50 10 100 100 SSE 6 9 29.92 1013 1 1 N/A
1:56 am 01:56 Cloudy with Fog 50 10 50 10 100 100 N N/A 29.91 1013 0 0 N/A
2:56 am 02:56 Cloudy with Fog 50 10 50 10 100 100 SE 3 6 29.90 1012 0 0 N/A
3:35 am 03:35 Cloudy with Fog 50 10 50 10 100 100 SE 3 6 29.88 1012 1 1 N/A
3:56 am 03:56 Cloudy with Fog 50 10 50 10 100 100 SE 5 7 29.87 1011 1 1 N/A
4:10 am 04:10 Cloudy with Fog 52 11 52 11 100 100 SSE 6 9 29.85 1011 0 0 N/A
4:28 am 04:28 Cloudy with Fog 52 11 52 11 100 100 S 6 9 29.85 1011 1 1 N/A
4:42 am 04:42 Cloudy with Light Rain 52 11 52 11 100 100 S 3 6 29.85 1011 1 1 N/A
4:56 am 04:56 Cloudy with Light Rain 52 11.1 52 11.1 100 100 SSE 6 9 29.85 1011 1 1 N/A
5:15 am 05:15 Cloudy with Light Rain 54 12 54 12 100 100 S 5 7 29.85 1011 1 1 0.01 0.25
5:21 am 05:21 Cloudy with Light Rain 54 12 54 12 100 100 S 5 7 29.85 1011 1 2 0.02 0.51
5:56 am 05:56 Cloudy with Rain 53 11.7 53 11.7 100 100 S 6 9 29.84 1011 2 3 0.04 1.02
6:03 am 06:03 Cloudy with Light Rain 54 12 54 12 100 100 S 7 11 29.83 1010 3 4 0.01 0.25
6:11 am 06:11 Cloudy with Rain 54 12 54 12 100 100 S 8 13 29.83 1010 5 8 0.01 0.25
6:49 am 06:49 Cloudy with Light Rain 54 12 54 12 100 100 S 8 13 29.83 1010 6 10 0.12 3.05
6:56 am 06:56 Cloudy with Light Rain 54 12.2 54 12.2 100 100 S 6 9 29.83 1010 6 10 0.12 3.05
7:24 am 07:24 Cloudy with Rain 54 12 54 12 100 100 SSE 6 9 29.83 1010 8 13 0.05 1.27
7:29 am 07:29 Cloudy with Light Rain 54 12 54 12 100 100 S 6 9 29.83 1010 9 14 0.05 1.27
7:45 am 07:45 Cloudy with Light Rain 54 12 54 12 100 100 S 6 9 29.83 1010 3 5 0.09 2.29
7:56 am 07:56 Cloudy with Light Rain 55 12.8 54 12.2 96 96 S 3 6 29.83 1010 4 6 0.09 2.29
8:33 am 08:33 Cloudy with Light Rain 55 13 55 13 100 100 S 6 9 29.83 1010 5 8 0.02 0.51
8:56 am 08:56 Cloudy with Light Rain 55 12.8 55 12.8 100 100 S 5 7 29.84 1010 5 8 0.02 0.51
9:09 am 09:09 Cloudy with Light Rain 55 13 55 13 100 100 S 5 7 29.83 1010 2 3 0.01 0.25
9:13 am 09:13 Cloudy with Light Rain 55 13 55 13 100 100 S 6 9 29.83 1010 3 5 0.01 0.25
9:25 am 09:25 Cloudy with Light Rain 55 13 55 13 100 100 SSE 6 9 29.83 1010 3 4 0.01 0.25
9:44 am 09:44 Cloudy with Light Rain 55 13 55 13 100 100 S 7 11 29.83 1010 6 10 0.03 0.76
9:53 am 09:53 Cloudy with Light Rain 55 13 55 13 100 100 S 8 13 29.83 1010 10 16 0.03 0.76
9:56 am 09:56 Cloudy with Light Rain 56 13.3 56 13.3 100 100 S 9 15 29.83 1010 10 16 0.03 0.76
10:10 am 10:10 Cloudy with Light Rain 55 13 55 13 100 100 SSW 8 13 29.83 1010 5 8 N/A
10:56 am 10:56 Cloudy with Light Rain 57 13.9 57 13.9 100 100 SW 12 19 29.83 1010 3 5 0.01 0.25
11:00 am 11:00 Cloudy with Light Rain 57 14 57 14 100 100 SSW 9 15 29.83 1010 2 3 N/A
11:31 am 11:31 Cloudy with Light Rain 57 14 57 14 100 100 SSW 9 15 29.83 1010 3 5 0.01 0.25
11:45 am 11:45 Cloudy 57 14 57 14 100 100 SSW 9 15 29.80 1009 10 16 0.01 0.25
11:56 am 11:56 Cloudy 58 14.4 57 13.9 97 97 SSW 10 17 29.81 1009 10 16 0.01 0.25
12:56 pm 12:56 Cloudy with Light Rain 58 14.4 57 13.9 97 97 SSW 8 13 29.78 1008 5 8 N/A
1:04 pm 13:04 Cloudy with Rain 57 14 57 14 100 100 SSW 8 13 29.77 1008 2 3 0.01 0.25
1:19 pm 13:19 Cloudy with Rain 57 14 57 14 100 100 SSW 10 17 29.77 1008 3 5 0.03 0.76
1:56 pm 13:56 Cloudy with Light Rain 58 14.4 57 13.9 97 97 SSW 9 15 29.76 1008 6 10 0.09 2.29
2:56 pm 14:56 Cloudy with Rain 58 14.4 57 13.9 97 97 SSW 12 19 29.74 1007 10 16 0.04 1.02
3:56 pm 15:56 Cloudy with Light Rain 59 15 58 14.4 96 96 SSW 13 20 29.71 1006 10 16 0.04 1.02
4:56 pm 16:56 Cloudy with Light Rain 50 10 49 9.4 96 96 NNW 14 22 29.71 1006 10 16 0.02 0.51
5:06 pm 17:06 Cloudy with Light Rain 50 10 48 9 94 94 NNW 15 24 29.71 1006 10 16 0.01 0.25
5:16 pm 17:16 Cloudy with Rain 48 9 48 9 100 100 NNW 14 22 29.71 1006 10 16 0.04 1.02
5:24 pm 17:24 Cloudy with Heavy Rain 48 9 48 9 100 100 NNW 12 19 29.74 1007 10 16 0.06 1.52
5:56 pm 17:56 Cloudy with Heavy Rain 47 8.3 45 7.2 93 93 N 10 17 29.76 1008 10 16 0.13 3.30
6:10 pm 18:10 Cloudy with Rain 46 8 45 7 93 93 N 8 13 29.77 1008 10 16 0.02 0.51
7:56 pm 19:56 Cloudy with Light Rain 44 6.7 42 5.6 93 93 NNE 8 13 29.79 1009 10 16 0.09 2.29
8:56 pm 20:56 Cloudy 44 6.7 42 5.6 93 93 NNE 13 20 29.80 1009 10 16 N/A
9:56 pm 21:56 Cloudy with Light Rain 43 6.1 41 5 93 93 NNE 13 20 29.83 1010 10 16 N/A
10:27 pm 22:27 Cloudy with Light Rain 43 6 41 5 93 93 N 16 26 29.85 1011 10 16 N/A
10:56 pm 22:56 Cloudy with Light Rain 42 5.6 40 4.4 92 92 N 13 20 29.86 1011 10 16 N/A
11:56 pm 23:56 Cloudy with Light Rain 41 5 39 3.9 93 93 N 13 20 29.87 1012 10 16 0.02 0.51

Powered by AerisWeather